Flight Track Log - Related Links

Times and Time Zones

All times are in EDT time to prevent confusion due to time zone crossing. See the N318DN flight status page for this flight to view local times or setup timezone preferences in your user account.

Time Position Orientation Groundspeed Altitude Reporting Facility
EDT Latitude Longitude Course Direction KTS MPH feet Rate Location/Type
03:18PM 47.9342 -122.2875 339° North 186 214 1,300  Level Seattle Center
03:19PM 47.9989 -122.3242 339° North 219 252 4,400 1,912 Climbing Seattle Center
03:20PM 47.9914 -122.3453 242° Southwest 212 244 4,900 735 Climbing Seattle Center
03:20PM 47.9617 -122.3714 210° Southwest 236 272 5,000 1,180 Climbing Seattle Center
03:21PM 47.9222 -122.4008 207° Southwest 232 267 6,100 1,869 Climbing Seattle Center
03:21PM 47.8994 -122.4158 204° Southwest 242 278 6,900 1,967 Climbing Seattle Center
03:22PM 47.8583 -122.4264 190° South 244 281 8,100 1,770 Climbing Seattle Center
03:22PM 47.8353 -122.4250 178° South 241 277 8,700 1,770 Climbing Seattle Center
03:23PM 47.7911 -122.4167 173° South 245 282 9,900 1,842 Climbing Seattle Center
03:24PM 47.7250 -122.3925 166° South 246 283 11,800 1,659 Climbing Seattle Center
03:25PM 47.6661 -122.3689 165° South 244 281 13,300 1,610 Climbing Seattle Center
03:26PM 47.5853 -122.3397 166° South 252 290 15,100 1,623 Climbing Seattle Center
03:27PM 47.5133 -122.3356 178° South 258 297 16,600 1,328 Climbing Seattle Center
03:28PM 47.4428 -122.3292 176° South 256 295 17,800 1,180 Climbing Seattle Center
03:29PM 47.3683 -122.3244 178° South 258 297 19,000 1,230 Climbing Seattle Center
03:30PM 47.2969 -122.3167 176° South 264 304 20,300 1,230 Climbing Seattle Center
03:31PM 47.2228 -122.3053 174° South 267 307 21,500 1,180 Climbing Seattle Center
03:32PM 47.1481 -122.2936 174° South 269 310 22,700 1,131 Climbing Seattle Center
03:33PM 47.0739 -122.2808 173° South 269 310 23,800 1,033 Climbing Seattle Center
03:34PM 46.9983 -122.2714 175° South 270 311 24,800 934 Climbing Seattle Center
03:35PM 46.9222 -122.2622 175° South 272 313 25,700 934 Climbing Seattle Center
03:36PM 46.8456 -122.2553 176° South 273 314 26,700 1,082 Climbing Seattle Center
03:37PM 46.7514 -122.2456 176° South 281 323 27,900 984 Climbing Seattle Center
03:38PM 46.6711 -122.2381 176° South 286 329 28,700 787 Climbing Seattle Center
03:39PM 46.5889 -122.2308 177° South 293 337 29,500 780 Climbing Seattle Center
03:40PM 46.5053 -122.2200 175° South 300 345 30,300 780 Climbing Seattle Center
03:41PM 46.4208 -122.2083 175° South 304 350 31,100 738 Climbing Seattle Center
03:42PM 46.3364 -122.1944 174° South 304 350 31,800 639 Climbing Seattle Center
03:43PM 46.2506 -122.1842 175° South 308 354 32,400 541 Climbing Seattle Center
03:44PM 46.1683 -122.1744 175° South 313 360 32,900 590 Climbing Seattle Center
03:45PM 46.0633 -122.1633 176° South 315 362 33,600 590 Climbing Seattle Center
03:46PM 45.9733 -122.1531 175° South 321 369 34,100 590 Climbing Seattle Center
03:47PM 45.8833 -122.1428 175° South 323 372 34,800 443 Climbing Seattle Center
03:48PM 45.7939 -122.1325 175° South 322 371 35,000 98 Climbing Seattle Center
03:49PM 45.7003 -122.1214 175° South 337 388 35,000  Level Seattle Center
03:50PM 45.6025 -122.1086 175° South 348 400 35,000  Level Seattle Center
03:51PM 45.5036 -122.0975 175° South 353 406 35,000  Level Seattle Center
03:53PM 45.4014 -122.0850 175° South 363 418 35,000  Level Seattle Center
03:54PM 45.2986 -122.0725 175° South 367 422 35,000  Level Seattle Center
03:55PM 45.1972 -122.0619 176° South 367 422 35,000  Level Seattle Center
03:56PM 45.0917 -122.0503 176° South 374 430 35,000  Level Seattle Center
03:57PM 44.9897 -122.0386 175° South 372 428 35,000  Level Seattle Center
03:58PM 44.8858 -122.0289 176° South 373 429 35,000  Level Seattle Center
03:59PM 44.7619 -122.0133 175° South 365 420 35,000  Level Seattle Center
04:00PM 44.6581 -122.0006 175° South 371 427 35,000  Level Seattle Center
04:01PM 44.5719 -121.9892 175° South 371 427 35,000  Level Seattle Center
04:02PM 44.4461 -121.9753 175° South 372 428 35,000  Level Seattle Center
04:03PM 44.3408 -121.9631 175° South 377 434 35,000  Level Seattle Center
04:04PM 44.2372 -121.9519 176° South 376 433 35,000  Level Seattle Center
04:05PM 44.1333 -121.9411 176° South 376 433 35,000  Level Seattle Center
04:06PM 44.0289 -121.9294 175° South 376 433 35,000  Level Seattle Center
04:07PM 43.9242 -121.9172 175° South 375 432 35,000  Level Seattle Center
04:08PM 43.8203 -121.9044 175° South 376 433 35,000  Level Seattle Center
04:09PM 43.7122 -121.8964 177° South 382 440 35,000  Level Seattle Center
04:10PM 43.6100 -121.8817 174° South 372 428 35,000  Level Seattle Center
04:11PM 43.5053 -121.8747 177° South 372 428 35,000  Level Seattle Center
04:12PM 43.3994 -121.8622 175° South 372 428 35,000  Level Seattle Center
04:13PM 43.2956 -121.8486 175° South 375 432 35,000  Level Seattle Center
04:14PM 43.1911 -121.8367 175° South 375 432 35,000  Level Seattle Center
04:15PM 43.0875 -121.8264 176° South 375 432 35,000  Level Seattle Center
04:16PM 42.9619 -121.8158 176° South 376 433 35,000  Level Seattle Center
04:17PM 42.8592 -121.8039 175° South 375 432 35,000  Level Seattle Center
04:18PM 42.7550 -121.7919 175° South 375 432 35,000  Level Seattle Center
04:19PM 42.6511 -121.7803 175° South 375 432 35,000  Level Seattle Center
04:20PM 42.5483 -121.7689 175° South 376 433 35,000  Level Seattle Center
04:21PM 42.4439 -121.7586 176° South 376 433 35,000  Level Seattle Center
04:22PM 42.3394 -121.7492 176° South 376 433 35,000  Level Seattle Center
04:23PM 42.2364 -121.7369 175° South 371 427 35,000  Level Seattle Center
04:24PM 42.1328 -121.7244 175° South 370 426 35,000  Level Seattle Center
04:25PM 42.0289 -121.7253 180° South 369 425 35,000  Level Seattle Center
04:26PM 41.9261 -121.7256 180° South 368 423 35,000  Level Seattle Center
04:27PM 41.8244 -121.7275 181° South 365 420 35,000  Level Seattle Center
04:28PM 41.7225 -121.7278 180° South 363 418 35,000  Level Seattle Center
04:29PM 41.6211 -121.7283 180° South 364 419 35,000  Level Seattle Center
04:30PM 41.5183 -121.7258 179° South 365 420 35,000  Level Seattle Center
04:31PM 41.4167 -121.7200 178° South 365 420 35,000  Level Seattle Center
04:32PM 41.2928 -121.7117 177° South 369 425 35,000  Level Seattle Center
04:33PM 41.1914 -121.7031 176° South 369 425 35,000  Level Seattle Center
04:34PM 41.0889 -121.6956 177° South 369 425 35,000  Level Seattle Center
04:35PM 40.9875 -121.6914 178° South 368 423 35,000  Level Seattle Center
04:36PM 40.8861 -121.6883 179° South 367 422 35,000 -344 Level Seattle Center
04:37PM 40.7894 -121.6842 178° South 367 422 34,300 -1,230 Descending Seattle Center
04:38PM 40.6794 -121.6814 179° South 391 450 32,500 -1,707 Descending Seattle Center
04:39PM 40.5675 -121.6786 179° South 398 458 30,800 -1,902 Descending Seattle Center
04:40PM 40.4350 -121.6706 177° South 398 458 28,600 -2,016 Descending Seattle Center
04:41PM 40.3233 -121.6619 177° South 398 458 26,700 -1,721 Descending Seattle Center
04:42PM 40.2136 -121.6544 177° South 397 457 25,100 -1,721 Descending Seattle Center
04:43PM 40.1053 -121.6506 178° South 391 450 23,200 -1,662 Descending Seattle Center
04:45PM 39.9547 -121.6439 178° South 381 438 21,000 -1,459 Descending Oakland Center
04:46PM 39.8522 -121.6397 178° South 370 426 19,600 -1,561 Descending Oakland Center
04:47PM 39.7497 -121.6339 177° South 368 423 17,800 -1,317 Descending Oakland Center
04:48PM 39.6481 -121.6292 178° South 368 423 16,900 -934 Descending Oakland Center
04:49PM 39.5558 -121.6253 178° South 337 388 15,900 -1,073 Descending Oakland Center
04:50PM 39.4650 -121.6328 184° South 324 373 14,700 -1,220 Descending Oakland Center
04:51PM 39.3750 -121.6397 183° South 324 373 13,400 -1,366 Descending Oakland Center
04:52PM 39.2700 -121.6522 185° South 319 367 11,900 -1,659 Descending Oakland Center
04:53PM 39.1872 -121.6586 183° South 305 351 10,000 -1,820 Descending Oakland Center
04:54PM 39.1156 -121.6667 185° South 267 307 8,200 -2,049 Descending Oakland Center
04:55PM 39.0456 -121.6739 185° South 259 298 5,800 -2,293 Descending Oakland Center
04:56PM 38.9783 -121.6811 185° South 248 285 3,500 -1,366 Descending Oakland Center
04:57PM 38.9175 -121.6856 183° South 232 267 3,000 -244 Descending Oakland Center
04:58PM 38.8569 -121.6903 183° South 224 258 3,000  Level Oakland Center
04:59PM 38.7986 -121.6961 184° South 218 251 3,000  Level Oakland Center
05:00PM 38.7325 -121.7031 185° South 207 238 3,000 49 Level Oakland Center
05:01PM 38.6733 -121.7117 186° South 208 239 3,100  Climbing Oakland Center
05:02PM 38.6247 -121.6986 168° South 184 212 3,000 -537 Descending Oakland Center
05:03PM 38.6128 -121.6475 107° East 166 191 2,000 -829 Descending Oakland Center
05:04PM 38.6283 -121.6067 64° Northeast 145 167 1,300 -723 Descending Oakland Center
05:06PM 38.6833 -121.6000 North 125 144 300 -759 Descending Northern Cal TRACON

Login

Don't have an account? Register now (free) for customized features, flight alerts, and more!